Simultaneous Nadir Overpasses (SNOs) Predictions

Prediction of SNOs between GOES-16 and NOAA-19 Satellite Orbit:

Table of predicted SNOs for the next 14.0 days since TLE Epoch: 7/3/2021
Index Date Time (GOES-16) GOES-16 Lat,Lon NOAA-19 Lat,Lon Distance(km) Time Diff (sec)
1 07/03/2021 23:39:42 0.09, -75.11 1.05, -70.97 473.23 58
2 07/05/2021 12:12:29 -0.09, -75.14 0.75, -78.72 409.09 80
3 07/06/2021 12:00:45 -0.09, -75.15 0.07, -75.86 81.58 80
4 07/07/2021 11:46:20 -0.10, -75.15 -0.61, -73.00 245.95 80
5 07/10/2021 00:09:59 0.10, -75.13 -0.58, -77.95 323.25 80
6 07/10/2021 23:58:15 0.11, -75.13 0.11, -75.09 4.74 80
7 07/11/2021 23:43:50 0.11, -75.14 0.80, -72.23 332.72 80
8 07/14/2021 12:07:11 -0.11, -75.19 0.34, -77.12 220.02 80
9 07/15/2021 11:52:46 -0.12, -75.20 -0.34, -74.25 108.50 80
10 07/16/2021 11:41:02 -0.12, -75.21 -1.03, -71.39 437.18 80
